Location: Unspecified
(0.0000°N, 0.0000°E)
Time: 14:07:27
(UTC+00:00)

A-11 Canister half - Pass Details

Date: 26 May 2026
Orbit: 1515 x 1685 km, 47.2° (Epoch: 8 June)

Event Time Altitude Azimuth Distance (km) Brightness Sun altitude
Rises 04:07:10 0° 309° (NW) 4,651 - -25.5°
Reaches altitude 10° 04:10:16 10° 304° (NW) 3,680 - -24.8°
Exits shadow 04:11:43 16° 301° (WNW) 3,248 10.4 -24.4°
Maximum altitude 04:19:12 53° 230° (SW) 1,851 9.0 -22.7°
Drops below altitude 10° 04:28:27 10° 155° (SSE) 3,796 11.1 -20.6°
Sets 04:31:44 0° 150° (SSE) 4,806 11.7 -19.8°
